• în Republica Moldova
  • Lista ţărilor
  • Pe 7 zile
  • Temperatura apei
  • Hartă satelitară
  • Meteo pe hartă
  • Widget-uri
  • user-avatar
    Intrare

    Meteo pe oră la Solden

    Astăzi, 20 Septembrie, Miercuri

    Timp Temperatura Precipitaţii Vânt Presiune Umiditate
    00:00 -6°C° 0,1 mm 3 m/s 580 mmHg 88%
    01:00 -6°C° 0,1 mm 3 m/s 580 mmHg 88%
    02:00 -6°C° 0,1 mm 3 m/s 580 mmHg 88%
    03:00 -6°C° 0,1 mm 3 m/s 580 mmHg 88%
    04:00 -6°C° 0,1 mm 3 m/s 580 mmHg 89%
    05:00 -5°C° 0 mm 2 m/s 580 mmHg 87%
    06:00 -4°C° 0 mm 2 m/s 580 mmHg 86%
    07:00 -4°C° 0 mm 2 m/s 581 mmHg 85%
    08:00 -2°C° 0 mm 2 m/s 581 mmHg 79%
    09:00 -1°C° 0 mm 2 m/s 582 mmHg 73%
    10:00 +2°C° 0 mm 2 m/s 583 mmHg 67%
    11:00 +3°C° 0 mm 2 m/s 584 mmHg 66%
    12:00 +4°C° 0 mm 2 m/s 584 mmHg 65%
    13:00 +4°C° 0 mm 2 m/s 584 mmHg 63%
    14:00 +4°C° 0 mm 2 m/s 584 mmHg 64%
    15:00 +4°C° 0 mm 2 m/s 584 mmHg 64%
    16:00 +3°C° 0 mm 2 m/s 583 mmHg 65%
    17:00 +1°C° 0 mm 2 m/s 583 mmHg 71%
    18:00 -2°C° 0 mm 2 m/s 582 mmHg 78%
    19:00 -4°C° 0 mm 2 m/s 581 mmHg 84%
    20:00 -4°C° 0 mm 2 m/s 581 mmHg 85%
    21:00 -5°C° 0 mm 2 m/s 581 mmHg 86%
    22:00 -5°C° 0 mm 2 m/s 582 mmHg 87%
    23:00 -6°C° 0 mm 2 m/s 582 mmHg 86%

    Mâine, 21 Septembrie, Joi

    Timp Temperatura Precipitaţii Vânt Presiune Umiditate
    00:00 -6°C° 0 mm 2 m/s 581 mmHg 85%
    01:00 -4°C° 0 mm 1 m/s 581 mmHg 84%
    02:00 -4°C° 0 mm 1 m/s 581 mmHg 80%
    03:00 -4°C° 0 mm 1 m/s 581 mmHg 77%
    04:00 -6°C° 0 mm 1 m/s 581 mmHg 74%
    05:00 -4°C° 0 mm 1 m/s 581 mmHg 70%
    06:00 -3°C° 0 mm 1 m/s 582 mmHg 67%
    07:00 -3°C° 0 mm 1 m/s 582 mmHg 63%
    08:00 0°C° 0 mm 1 m/s 583 mmHg 60%
    09:00 +3°C° 0 mm 1 m/s 584 mmHg 57%
    10:00 +6°C° 0 mm 1 m/s 585 mmHg 53%
    11:00 +7°C° 0 mm 1 m/s 586 mmHg 52%
    12:00 +8°C° 0 mm 1 m/s 586 mmHg 51%
    13:00 +9°C° 0 mm 1 m/s 586 mmHg 50%
    14:00 +9°C° 0 mm 1 m/s 586 mmHg 52%
    15:00 +9°C° 0 mm 1 m/s 585 mmHg 54%
    16:00 +8°C° 0 mm 1 m/s 585 mmHg 56%
    17:00 +6°C° 0 mm 1 m/s 584 mmHg 63%
    18:00 +3°C° 0 mm 1 m/s 583 mmHg 70%
    19:00 +1°C° 0 mm 1 m/s 582 mmHg 77%
    20:00 0°C° 0 mm 1 m/s 582 mmHg 77%
    21:00 0°C° 0 mm 1 m/s 582 mmHg 77%
    22:00 0°C° 0 mm 1 m/s 583 mmHg 77%
    23:00 0°C° 0 mm 1 m/s 583 mmHg 76%

    Poimâine, 22 Septembrie, Vineri

    Timp Temperatura Precipitaţii Vânt Presiune Umiditate
    00:00 0°C° 0 mm 1 m/s 583 mmHg 74%
    01:00 0°C° 0 mm 1 m/s 583 mmHg 72%
    02:00 0°C° 0 mm 1 m/s 583 mmHg 71%
    03:00 0°C° 0 mm 1 m/s 582 mmHg 70%
    04:00 0°C° 0 mm 1 m/s 582 mmHg 68%
    05:00 0°C° 0 mm 1 m/s 583 mmHg 67%
    06:00 +1°C° 0 mm 1 m/s 583 mmHg 65%
    07:00 +1°C° 0 mm 1 m/s 583 mmHg 64%
    08:00 +4°C° 0 mm 1 m/s 585 mmHg 61%
    09:00 +7°C° 0 mm 1 m/s 586 mmHg 58%
    10:00 +9°C° 0 mm 1 m/s 588 mmHg 54%
    11:00 +10°C° 0 mm 1 m/s 588 mmHg 54%
    12:00 +11°C° 0 mm 1 m/s 588 mmHg 53%
    13:00 +11°C° 0 mm 1 m/s 588 mmHg 52%
    14:00 +11°C° 0 mm 1 m/s 588 mmHg 55%
    15:00 +11°C° 0 mm 1 m/s 588 mmHg 57%
    16:00 +10°C° 0 mm 1 m/s 588 mmHg 60%
    17:00 +8°C° 0 mm 1 m/s 587 mmHg 68%
    18:00 +5°C° 0 mm 1 m/s 586 mmHg 77%
    19:00 +3°C° 0 mm 1 m/s 585 mmHg 85%
    20:00 +2°C° 0 mm 1 m/s 585 mmHg 86%
    21:00 +2°C° 0 mm 1 m/s 585 mmHg 87%
    22:00 +1°C° 0 mm 1 m/s 585 mmHg 87%
    23:00 +1°C° 0 mm 1 m/s 585 mmHg 87%

    23 Septembrie, Sâmbătă

    Timp Temperatura Precipitaţii Vânt Presiune Umiditate
    00:00 +1°C° 0 mm 1 m/s 585 mmHg 86%
    01:00 +1°C° 0 mm 1 m/s 585 mmHg 86%
    02:00 +1°C° 0 mm 1 m/s 585 mmHg 85%
    03:00 +1°C° 0 mm 1 m/s 585 mmHg 84%
    04:00 +1°C° 0 mm 1 m/s 585 mmHg 83%
    05:00 +1°C° 0 mm 1 m/s 585 mmHg 81%
    06:00 +2°C° 0 mm 1 m/s 585 mmHg 79%
    07:00 +2°C° 0 mm 1 m/s 586 mmHg 77%
    08:00 +5°C° 0 mm 1 m/s 587 mmHg 70%
    09:00 +7°C° 0 mm 1 m/s 588 mmHg 62%
    10:00 +9°C° 0 mm 0 m/s 589 mmHg 55%
    11:00 +10°C° 0 mm 1 m/s 589 mmHg 54%
    12:00 +11°C° 0 mm 1 m/s 589 mmHg 53%
    13:00 +11°C° 0 mm 1 m/s 589 mmHg 51%
    14:00 +11°C° 0,1 mm 1 m/s 589 mmHg 54%
    15:00 +11°C° 0,1 mm 1 m/s 588 mmHg 57%
    16:00 +10°C° 0,1 mm 1 m/s 588 mmHg 59%
    17:00 +8°C° 0,1 mm 1 m/s 587 mmHg 67%
    18:00 +5°C° 0,1 mm 1 m/s 586 mmHg 76%
    19:00 +2°C° 0,1 mm 0 m/s 585 mmHg 84%
    20:00 +2°C° 0,1 mm 0 m/s 585 mmHg 84%
    21:00 +1°C° 0,1 mm 0 m/s 585 mmHg 84%
    22:00 +2°C° 0,1 mm 1 m/s 585 mmHg 85%
    23:00 +2°C° 0 mm 1 m/s 585 mmHg 84%

    24 Septembrie, Duminică

    Timp Temperatura Precipitaţii Vânt Presiune Umiditate
    00:00 +2°C° 0 mm 1 m/s 584 mmHg 84%
    01:00 +1°C° 0 mm 1 m/s 584 mmHg 83%
    02:00 +1°C° 0 mm 1 m/s 584 mmHg 83%
    03:00 +1°C° 0 mm 1 m/s 584 mmHg 83%
    04:00 +1°C° 0 mm 1 m/s 584 mmHg 83%
    05:00 +1°C° 0 mm 1 m/s 584 mmHg 82%
    06:00 +2°C° 0 mm 1 m/s 584 mmHg 81%
    07:00 +2°C° 0 mm 1 m/s 585 mmHg 80%
    08:00 +5°C° 0 mm 1 m/s 586 mmHg 71%
    09:00 +7°C° 0 mm 1 m/s 587 mmHg 62%
    10:00 +10°C° 0 mm 1 m/s 588 mmHg 53%
    11:00 +11°C° 0 mm 1 m/s 589 mmHg 51%
    12:00 +11°C° 0 mm 1 m/s 589 mmHg 48%
    13:00 +12°C° 0 mm 1 m/s 589 mmHg 46%
    14:00 +12°C° 0 mm 1 m/s 589 mmHg 48%
    15:00 +11°C° 0 mm 1 m/s 589 mmHg 49%
    16:00 +10°C° 0 mm 2 m/s 588 mmHg 51%
    17:00 +8°C° 0 mm 1 m/s 587 mmHg 60%
    18:00 +6°C° 0 mm 1 m/s 586 mmHg 69%
    19:00 +4°C° 0 mm 1 m/s 585 mmHg 79%
    20:00 +3°C° 0 mm 1 m/s 586 mmHg 81%
    21:00 +3°C° 0 mm 1 m/s 586 mmHg 83%
    22:00 +2°C° 0 mm 1 m/s 586 mmHg 85%
    23:00 +2°C° 0 mm 1 m/s 585 mmHg 86%

    25 Septembrie, Luni

    Timp Temperatura Precipitaţii Vânt Presiune Umiditate
    00:00 +2°C° 0 mm 1 m/s 585 mmHg 87%
    01:00 +1°C° 0 mm 1 m/s 585 mmHg 88%
    02:00 +1°C° 0 mm 1 m/s 585 mmHg 87%
    03:00 +1°C° 0 mm 1 m/s 584 mmHg 87%
    04:00 0°C° 0 mm 1 m/s 584 mmHg 86%
    05:00 +1°C° 0 mm 1 m/s 584 mmHg 82%
    06:00 +1°C° 0 mm 1 m/s 585 mmHg 78%
    07:00 +1°C° 0 mm 1 m/s 585 mmHg 75%
    08:00 +4°C° 0 mm 1 m/s 586 mmHg 65%
    09:00 +7°C° 0 mm 1 m/s 587 mmHg 55%
    10:00 +10°C° 0 mm 1 m/s 589 mmHg 45%
    11:00 +10°C° 0 mm 1 m/s 589 mmHg 43%
    12:00 +11°C° 0 mm 1 m/s 589 mmHg 41%
    13:00 +12°C° 0 mm 1 m/s 589 mmHg 39%
    14:00 +12°C° 0 mm 1 m/s 589 mmHg 41%
    15:00 +11°C° 0 mm 1 m/s 588 mmHg 44%
    16:00 +11°C° 0 mm 1 m/s 588 mmHg 46%
    17:00 +8°C° 0 mm 1 m/s 587 mmHg 57%
    18:00 +5°C° 0 mm 1 m/s 585 mmHg 68%
    19:00 +3°C° 0 mm 1 m/s 584 mmHg 79%
    20:00 +1°C° 0 mm 0 m/s 584 mmHg 81%
    21:00 +1°C° 0 mm 0 m/s 584 mmHg 83%
    22:00 +1°C° 0 mm 0 m/s 584 mmHg 85%
    23:00 +2°C° 0 mm 1 m/s 584 mmHg 86%
    Arată mai mult